CZ-6A DEB

Satellite information

Favourite Embed

Satellite Type and Status

DEBRISIN ORBIT

Key statistics

Satellite CZ-6A DEB at a glance.

Uptime

969

Days in orbit

Revolutions

≈ 14.6

Per day

Orbit

SSO

Sun Synchronous Orbit

Inclination

98.6

Latest

Satellite identification and parameters

Extended collection of information and parameters for CZ-6A DEB.

Object identification

Identified? True

Debris? True

Object name: CZ-6A DEB

International designator: 2022-151ACP

Object number (NORAD): 56271

Object ID (CCSDS): 56271

Country: PEOPLES REPUBLIC OF CHINA (PRC)

Current information (Y/N): Y

RCS size: SMALL

Orbital parameters

Period: 98.38 minutes

Inclination: 98.5533 deg

SMA: 7059.347 km

Apoapsis: 723.621 km

Periapsis: 638.803 km

RAAN: 216.2847 deg

Eccentricy: 0.0060075

Argument of periapsis: 279.6513 deg

Mean anomaly: 79.7905 deg

Mean motion: 14.63713263 rev/day

Mean motion (dot): 0.00009985 rev/day2

B* drag term: 0.001876 1/REarth

Two-line elements (TLE)

Creation date: July 6, 2025, 10:16 p.m.

Reference frame: TEME

Reference center: EARTH

Epoch: July 6, 2025, 2:57 p.m. UTC

TLE line 0: 0 CZ-6A DEB

TLE line 1: 1 56271U 22151ACP 25187.62332561 .00009985 00000-0 18760-2 0 9998

TLE line 2: 2 56271 98.5533 216.2847 0060075 279.6513 79.7905 14.63713263121295

Live tracking on map

Real-time ground track for satellite CZ-6A DEB.

In-orbit conjunctions

A list of the most updated potential collisions computed for object CZ-6A DEB.

Target Orbit TCA Probability of collision Miss distance Type
CZ-2D DEB SSO 2025-05-13 10:37:38 0.0001185908 237.0 (m) DEBRIS
SL-8 DEB LEO 2025-02-17 15:37:49 0.0001709935 157.0 (m) DEBRIS
CZ-6A DEB LEO 2025-01-04 20:28:56 0.0001405277 520.0 (m) DEBRIS
SL-8 DEB LEO 2024-09-30 02:33:18 0.0001546211 33.0 (m) DEBRIS

Associated space launch

Chinese satellite reported for atmospheric/ocean/environmental/spatial parameter research purposes, details TBD.

CZ-6A DEB was lifted into orbit during the mission ‘Long March 6A | Yunhai 3’, on board a Long March 6A space rocket.

The launch took place on Nov. 11, 2022, 10:52 p.m. from Launch Complex 9A.

For more information about the launch, click the button.

Launch to space Long March 6A | Yunhai 3
Long March 6A | Yunhai 3

Agency: N/A

Status: Launch Successful

Launch date: Nov. 11, 2022, 10:52 p.m. UTC

Rocket: Long March 6A

Launch pad: Launch Complex 9A

Location: Taiyuan Satellite Launch Center, People's Republic of China

...

Latest news about this satellite

There are no fresh news available about this satellite. Check back as we update our databases every day.


Newsletter sign-up

Weekly statistics, charts and insights to help you stay on top of the space industry.